This demonstration page uses our WeatherBlox Daily Observations layout. Learn more.

Left ArrowRight Arrow

38.20091, -84.87328

Hourly Observations for August 26, 2018

Temp ( °F °C ) Dew Point ( °F °C ) Humidity (%) Winds ( mph kmh ) Pressure ( in mb ) Visibility ( mi km ) Precip ( " mm )
12:53 am 00:53 Clear 76 24.4 69 20.6 79 79 S 10 17 30.09 1019 10 16 0.00 0.00
1:53 am 01:53 Clear 75 23.9 69 20.6 82 82 SSW 5 7 30.10 1019 10 16 0.00 0.00
2:53 am 02:53 Mostly Cloudy 74 23.3 69 20.6 85 85 S 5 7 30.11 1020 10 16 0.00 0.00
3:53 am 03:53 Clear 73 22.8 69 20.6 87 87 SSW 5 7 30.11 1020 10 16 0.00 0.00
4:53 am 04:53 Partly Cloudy 73 22.8 69 20.6 87 87 SSW 5 7 30.12 1020 10 16 0.00 0.00
5:53 am 05:53 Mostly Clear 73 22.8 69 20.6 87 87 SSW 6 9 30.13 1020 10 16 0.00 0.00
6:53 am 06:53 Clear 73 22.8 69 20.6 87 87 SSW 9 15 30.14 1021 10 16 0.00 0.00
7:53 am 07:53 Mostly Sunny 74 23.3 69 20.6 85 85 SSW 8 13 30.15 1021 10 16 0.00 0.00
8:53 am 08:53 Mostly Sunny 77 25 70 21.1 79 79 SW 12 19 30.15 1021 10 16 0.00 0.00
9:53 am 09:53 Sunny 79 26.1 71 21.7 77 77 SW 10 17 30.17 1022 10 16 0.00 0.00
10:53 am 10:53 Sunny 82 27.8 72 22.2 72 72 SW 9 15 30.18 1022 10 16 0.00 0.00
11:53 am 11:53 Sunny 86 30 73 22.8 65 65 WSW 8 13 30.16 1022 10 16 0.00 0.00
12:53 pm 12:53 Sunny 87 30.6 73 22.8 63 63 WSW 10 17 30.15 1021 10 16 0.00 0.00
1:53 pm 13:53 Sunny 88 31.1 73 22.8 61 61 SW 10 17 30.14 1021 10 16 0.00 0.00
2:53 pm 14:53 Mostly Sunny 89 31.7 73 22.8 59 59 SW 8 13 30.12 1020 10 16 0.00 0.00
3:53 pm 15:53 Partly Cloudy 90 32.2 73 22.8 58 58 WSW 8 13 30.11 1020 10 16 0.00 0.00
4:53 pm 16:53 Mostly Sunny 89 31.7 72 22.2 57 57 SW 7 11 30.09 1019 10 16 0.00 0.00
5:53 pm 17:53 Sunny 88 31.1 73 22.8 61 61 SW 6 9 30.09 1019 10 16 0.00 0.00
6:53 pm 18:53 Sunny 86 30 74 23.3 67 67 SW 6 9 30.09 1019 10 16 0.00 0.00
7:53 pm 19:53 Sunny 84 28.9 74 23.3 72 72 SSW 5 7 30.08 1019 10 16 0.00 0.00
8:53 pm 20:53 Clear 80 26.7 75 23.9 85 85 SSW 3 6 30.08 1019 10 16 0.00 0.00
9:53 pm 21:53 Clear 78 25.6 74 23.3 87 87 S 5 7 30.10 1019 10 16 0.00 0.00
10:53 pm 22:53 Clear 80 26.7 73 22.8 79 79 S 7 11 30.11 1020 10 16 0.00 0.00
11:53 pm 23:53 Clear 78 25.6 73 22.8 85 85 SSW 6 9 30.10 1019 10 16 0.00 0.00

Powered by AerisWeather